Time,TemperatureF,DewpointF,PressureIn,WindDirection,WindDirectionDegrees,WindSpeedMPH,WindSpeedGustMPH,Humidity,HourlyPrecipIn,Conditions,Clouds,dailyrainin,SolarRadiationWatts/m^2,SoftwareType,DateUTC
2013-10-16 00:03:00,48.9,46.1,29.66,WSW,253,2.0,4.0,90,0.00,RA,RA,0.00,0.0,WeatherDisplay:10.37,2013-10-16 05:03:00,
2013-10-16 00:08:00,48.8,46.0,29.66,West,260,2.0,4.0,90,0.00,CLR,CLR,0.00,0.0,WeatherDisplay:10.37,2013-10-16 05:08:00,
2013-10-16 00:13:00,48.8,46.0,29.66,WSW,251,2.0,5.0,90,0.00,CLR,CLR,0.00,0.0,WeatherDisplay:10.37,2013-10-16 05:13:00,
2013-10-16 00:18:00,48.9,46.1,29.66,WSW,246,3.0,5.0,90,0.00,CLR,CLR,0.00,0.0,WeatherDisplay:10.37,2013-10-16 05:18:00,
2013-10-16 00:23:00,49.2,46.1,29.66,WSW,250,2.0,5.0,89,0.00,CLR,CLR,0.00,0.0,WeatherDisplay:10.37,2013-10-16 05:23:00,
2013-10-16 00:28:00,49.1,45.7,29.66,WSW,255,3.0,5.0,88,0.00,CLR,CLR,0.00,0.0,WeatherDisplay:10.37,2013-10-16 05:28:00,
2013-10-16 00:38:00,48.6,45.2,29.66,West,260,1.0,3.0,88,0.00,CLR,CLR,0.00,0.0,WeatherDisplay:10.37,2013-10-16 05:38:00,
2013-10-16 00:43:00,48.4,45.0,29.66,WSW,256,5.0,6.0,88,0.00,CLR,CLR,0.00,0.0,WeatherDisplay:10.37,2013-10-16 05:43:00,
2013-10-16 00:48:00,48.5,45.1,29.67,WSW,256,2.0,5.0,88,0.00,CLR,CLR,0.00,0.0,WeatherDisplay:10.37,2013-10-16 05:48:00,
2013-10-16 00:53:00,48.4,44.7,29.67,West,268,2.0,5.0,87,0.00,CLR,CLR,0.00,0.0,WeatherDisplay:10.37,2013-10-16 05:53:00,
2013-10-16 01:03:00,48.2,44.9,29.67,West,269,2.0,4.0,88,0.00,CLR,CLR,0.00,0.0,WeatherDisplay:10.37,2013-10-16 06:03:00,
2013-10-16 01:08:00,48.1,44.7,29.67,West,275,1.0,2.0,88,0.00,CLR,CLR,0.00,0.0,WeatherDisplay:10.37,2013-10-16 06:08:00,
2013-10-16 01:13:00,47.9,44.5,29.67,West,281,2.0,3.0,88,0.00,CLR,CLR,0.00,0.0,WeatherDisplay:10.37,2013-10-16 06:13:00,
2013-10-16 01:18:00,47.7,44.3,29.67,West,281,2.0,3.0,88,0.00,CLR,CLR,0.00,0.0,WeatherDisplay:10.37,2013-10-16 06:18:00,
2013-10-16 01:23:00,47.5,44.4,29.67,West,281,1.0,3.0,89,0.00,CLR,CLR,0.00,0.0,WeatherDisplay:10.37,2013-10-16 06:23:00,
2013-10-16 01:28:00,47.1,44.0,29.67,West,281,2.0,3.0,89,0.00,CLR,CLR,0.00,0.0,WeatherDisplay:10.37,2013-10-16 06:28:00,
2013-10-16 01:38:00,46.3,43.8,29.67,WSW,258,2.0,5.0,91,0.00,CLR,CLR,0.00,0.0,WeatherDisplay:10.37,2013-10-16 06:38:00,
2013-10-16 01:43:00,46.3,43.8,29.67,West,263,2.0,4.0,91,0.00,CLR,CLR,0.00,0.0,WeatherDisplay:10.37,2013-10-16 06:43:00,
2013-10-16 01:48:00,46.1,43.3,29.67,West,263,1.0,4.0,90,0.00,CLR,CLR,0.00,0.0,WeatherDisplay:10.37,2013-10-16 06:48:00,
2013-10-16 01:53:00,45.8,43.3,29.67,WSW,252,3.0,6.0,91,0.00,CLR,CLR,0.00,0.0,WeatherDisplay:10.37,2013-10-16 06:53:00,
2013-10-16 01:58:00,45.5,43.0,29.67,WSW,248,5.0,6.0,91,0.00,CLR,CLR,0.00,0.0,WeatherDisplay:10.37,2013-10-16 06:58:00,
2013-10-16 02:03:00,45.6,43.1,29.67,WSW,251,5.0,8.0,91,0.00,CLR,CLR,0.00,0.0,WeatherDisplay:10.37,2013-10-16 07:03:00,
2013-10-16 02:08:00,45.6,43.1,29.67,WSW,251,5.0,6.0,91,0.00,CLR,CLR,0.00,0.0,WeatherDisplay:10.37,2013-10-16 07:08:00,
2013-10-16 02:13:00,45.4,42.9,29.67,WSW,251,5.0,7.0,91,0.00,CLR,CLR,0.00,0.0,WeatherDisplay:10.37,2013-10-16 07:13:00,
2013-10-16 02:18:00,45.4,42.9,29.67,WSW,249,5.0,7.0,91,0.00,CLR,CLR,0.00,0.0,WeatherDisplay:10.37,2013-10-16 07:18:00,
2013-10-16 02:23:00,45.4,42.9,29.67,WSW,249,5.0,7.0,91,0.00,CLR,CLR,0.00,0.0,WeatherDisplay:10.37,2013-10-16 07:23:00,
2013-10-16 02:28:00,45.4,42.9,29.67,WSW,251,5.0,6.0,91,0.00,CLR,CLR,0.00,0.0,WeatherDisplay:10.37,2013-10-16 07:28:00,
2013-10-16 02:33:00,45.2,42.7,29.67,WSW,248,5.0,6.0,91,0.00,CLR,CLR,0.00,0.0,WeatherDisplay:10.37,2013-10-16 07:33:00,
2013-10-16 02:38:00,45.0,42.5,29.67,WSW,248,3.0,5.0,91,0.00,CLR,CLR,0.00,0.0,WeatherDisplay:10.37,2013-10-16 07:38:00,
2013-10-16 02:43:00,44.7,42.3,29.67,WSW,249,3.0,5.0,91,0.00,CLR,CLR,0.00,0.0,WeatherDisplay:10.37,2013-10-16 07:43:00,
2013-10-16 02:48:00,44.9,42.7,29.67,WSW,244,5.0,7.0,92,0.00,CLR,CLR,0.00,0.0,WeatherDisplay:10.37,2013-10-16 07:48:00,
2013-10-16 02:53:00,45.0,42.5,29.66,WSW,247,6.0,7.0,91,0.00,CLR,CLR,0.00,0.0,WeatherDisplay:10.37,2013-10-16 07:53:00,
2013-10-16 02:58:00,45.0,42.5,29.66,WSW,250,5.0,8.0,91,0.00,CLR,CLR,0.00,0.0,WeatherDisplay:10.37,2013-10-16 07:58:00,
2013-10-16 03:03:00,44.9,42.4,29.66,WSW,247,5.0,7.0,91,0.00,CLR,CLR,0.00,0.0,WeatherDisplay:10.37,2013-10-16 08:03:00,
2013-10-16 03:08:00,44.7,42.2,29.66,WSW,244,5.0,7.0,91,0.00,CLR,CLR,0.00,0.0,WeatherDisplay:10.37,2013-10-16 08:08:00,
2013-10-16 03:13:00,44.3,41.9,29.66,WSW,247,3.0,7.0,91,0.00,CLR,CLR,0.00,0.0,WeatherDisplay:10.37,2013-10-16 08:13:00,
2013-10-16 03:18:00,44.2,41.7,29.66,WSW,250,3.0,7.0,91,0.00,CLR,CLR,0.00,0.0,WeatherDisplay:10.37,2013-10-16 08:18:00,
2013-10-16 03:23:00,44.1,41.6,29.66,WSW,250,3.0,6.0,91,0.00,CLR,CLR,0.00,0.0,WeatherDisplay:10.37,2013-10-16 08:23:00,
2013-10-16 03:28:00,43.9,41.7,29.66,WSW,251,5.0,6.0,92,0.00,CLR,CLR,0.00,0.0,WeatherDisplay:10.37,2013-10-16 08:28:00,
2013-10-16 03:33:00,43.9,41.7,29.66,WSW,252,3.0,6.0,92,0.00,CLR,CLR,0.00,0.0,WeatherDisplay:10.37,2013-10-16 08:33:00,
2013-10-16 03:38:00,43.9,41.7,29.66,WSW,252,3.0,6.0,92,0.00,CLR,CLR,0.00,0.0,WeatherDisplay:10.37,2013-10-16 08:38:00,
2013-10-16 03:43:00,43.8,41.7,29.66,WSW,248,3.0,5.0,92,0.00,CLR,CLR,0.00,0.0,WeatherDisplay:10.37,2013-10-16 08:43:00,
2013-10-16 03:48:00,43.7,41.5,29.66,WSW,248,2.0,4.0,92,0.00,CLR,CLR,0.00,0.0,WeatherDisplay:10.37,2013-10-16 08:48:00,
2013-10-16 03:53:00,43.6,41.4,29.66,WSW,255,2.0,4.0,92,0.00,CLR,CLR,0.00,0.0,WeatherDisplay:10.37,2013-10-16 08:53:00,
2013-10-16 03:58:00,43.4,41.2,29.66,WSW,252,3.0,5.0,92,0.00,CLR,CLR,0.00,0.0,WeatherDisplay:10.37,2013-10-16 08:58:00,
2013-10-16 04:03:00,43.1,40.9,29.66,WSW,248,2.0,4.0,92,0.00,CLR,CLR,0.00,0.0,WeatherDisplay:10.37,2013-10-16 09:03:00,
2013-10-16 04:08:00,43.0,41.1,29.66,WSW,246,3.0,7.0,93,0.00,CLR,CLR,0.00,0.0,WeatherDisplay:10.37,2013-10-16 09:08:00,
2013-10-16 04:13:00,42.9,40.7,29.66,WSW,244,3.0,6.0,92,0.00,CLR,CLR,0.00,0.0,WeatherDisplay:10.37,2013-10-16 09:13:00,
2013-10-16 04:18:00,42.4,40.2,29.66,WSW,246,2.0,4.0,92,0.00,CLR,CLR,0.00,0.0,WeatherDisplay:10.37,2013-10-16 09:18:00,
2013-10-16 04:23:00,42.1,40.2,29.66,WSW,247,2.0,4.0,93,0.00,CLR,CLR,0.00,0.0,WeatherDisplay:10.37,2013-10-16 09:23:00,
2013-10-16 04:28:00,42.2,40.5,29.66,WSW,247,3.0,4.0,94,0.00,CLR,CLR,0.00,0.0,WeatherDisplay:10.37,2013-10-16 09:28:00,
2013-10-16 04:33:00,42.3,40.7,29.66,WSW,250,2.0,4.0,94,0.00,CLR,CLR,0.00,0.0,WeatherDisplay:10.37,2013-10-16 09:33:00,
2013-10-16 04:38:00,42.4,40.8,29.66,WSW,252,3.0,4.0,94,0.00,CLR,CLR,0.00,0.0,WeatherDisplay:10.37,2013-10-16 09:38:00,
2013-10-16 04:43:00,42.5,40.9,29.66,WSW,252,1.0,4.0,94,0.00,CLR,CLR,0.00,0.0,WeatherDisplay:10.37,2013-10-16 09:43:00,
2013-10-16 04:48:00,42.7,41.1,29.66,WSW,252,2.0,4.0,94,0.00,CLR,CLR,0.00,0.0,WeatherDisplay:10.37,2013-10-16 09:48:00,
2013-10-16 04:53:00,42.8,41.2,29.66,WSW,252,1.0,5.0,94,0.00,CLR,CLR,0.00,0.0,WeatherDisplay:10.37,2013-10-16 09:53:00,
2013-10-16 04:58:00,42.9,41.3,29.66,WSW,240,2.0,5.0,94,0.00,CLR,CLR,0.00,0.0,WeatherDisplay:10.37,2013-10-16 09:58:00,
2013-10-16 05:03:00,43.0,41.4,29.66,SW,232,3.0,5.0,94,0.00,CLR,CLR,0.00,0.0,WeatherDisplay:10.37,2013-10-16 10:03:00,
2013-10-16 05:08:00,43.0,41.4,29.66,WSW,238,3.0,5.0,94,0.00,CLR,CLR,0.00,0.0,WeatherDisplay:10.37,2013-10-16 10:08:00,
2013-10-16 05:13:00,43.1,41.5,29.66,WSW,244,5.0,6.0,94,0.00,CLR,CLR,0.00,0.0,WeatherDisplay:10.37,2013-10-16 10:13:00,
2013-10-16 05:18:00,43.3,41.7,29.67,WSW,245,5.0,6.0,94,0.00,CLR,CLR,0.00,0.0,WeatherDisplay:10.37,2013-10-16 10:18:00,
2013-10-16 05:23:00,43.5,41.9,29.66,WSW,243,3.0,6.0,94,0.00,CLR,CLR,0.00,0.0,WeatherDisplay:10.37,2013-10-16 10:23:00,
2013-10-16 05:28:00,43.7,42.1,29.67,WSW,242,3.0,5.0,94,0.00,CLR,CLR,0.00,0.0,WeatherDisplay:10.37,2013-10-16 10:28:00,
2013-10-16 05:33:00,43.8,42.5,29.67,WSW,242,2.0,4.0,95,0.00,CLR,CLR,0.00,0.0,WeatherDisplay:10.37,2013-10-16 10:33:00,
2013-10-16 05:38:00,44.0,42.7,29.67,WSW,242,2.0,4.0,95,0.00,CLR,CLR,0.00,0.0,WeatherDisplay:10.37,2013-10-16 10:38:00,
2013-10-16 05:43:00,44.2,42.9,29.66,WSW,242,2.0,4.0,95,0.00,CLR,CLR,0.00,0.0,WeatherDisplay:10.37,2013-10-16 10:43:00,
2013-10-16 05:48:00,44.5,43.2,29.66,WSW,252,5.0,6.0,95,0.00,CLR,CLR,0.00,0.0,WeatherDisplay:10.37,2013-10-16 10:48:00,
2013-10-16 05:53:00,44.7,43.1,29.66,WSW,252,3.0,5.0,94,0.00,CLR,CLR,0.00,0.0,WeatherDisplay:10.37,2013-10-16 10:53:00,
2013-10-16 05:58:00,45.0,43.4,29.66,WSW,245,5.0,5.0,94,0.00,CLR,CLR,0.00,0.0,WeatherDisplay:10.37,2013-10-16 10:58:00,
2013-10-16 06:03:00,45.5,43.9,29.66,WSW,246,6.0,8.0,94,0.00,CLR,CLR,0.00,0.0,WeatherDisplay:10.37,2013-10-16 11:03:00,
2013-10-16 06:08:00,46.2,44.3,29.66,WSW,250,5.0,8.0,93,0.00,CLR,CLR,0.00,0.0,WeatherDisplay:10.37,2013-10-16 11:08:00,
2013-10-16 06:13:00,46.6,44.4,29.66,WSW,252,6.0,9.0,92,0.00,CLR,CLR,0.00,0.0,WeatherDisplay:10.37,2013-10-16 11:13:00,
2013-10-16 06:18:00,46.8,44.4,29.66,WSW,256,8.0,12.0,91,0.00,CLR,CLR,0.00,0.0,WeatherDisplay:10.37,2013-10-16 11:18:00,
2013-10-16 06:23:00,47.1,44.6,29.66,WSW,253,8.0,10.0,91,0.00,CLR,CLR,0.00,0.0,WeatherDisplay:10.37,2013-10-16 11:23:00,
2013-10-16 06:28:00,47.2,44.7,29.66,WSW,249,7.0,9.0,91,0.00,CLR,CLR,0.00,0.0,WeatherDisplay:10.37,2013-10-16 11:28:00,
2013-10-16 06:33:00,47.2,44.7,29.66,WSW,249,7.0,12.0,91,0.00,CLR,CLR,0.00,0.0,WeatherDisplay:10.37,2013-10-16 11:33:00,
2013-10-16 06:38:00,47.3,44.5,29.66,WSW,251,6.0,12.0,90,0.00,CLR,CLR,0.00,0.0,WeatherDisplay:10.37,2013-10-16 11:38:00,
2013-10-16 06:43:00,47.4,44.9,29.66,WSW,248,7.0,10.0,91,0.00,CLR,CLR,0.00,0.0,WeatherDisplay:10.37,2013-10-16 11:43:00,
2013-10-16 06:48:00,47.5,44.7,29.66,WSW,245,8.0,11.0,90,0.00,CLR,CLR,0.00,0.0,WeatherDisplay:10.37,2013-10-16 11:48:00,
2013-10-16 06:53:00,47.6,44.8,29.66,WSW,248,7.0,10.0,90,0.00,CLR,CLR,0.00,0.0,WeatherDisplay:10.37,2013-10-16 11:53:00,
2013-10-16 06:58:00,47.6,44.8,29.66,WSW,248,6.0,10.0,90,0.00,CLR,CLR,0.00,0.0,WeatherDisplay:10.37,2013-10-16 11:58:00,
2013-10-16 07:03:00,47.6,44.8,29.66,WSW,247,7.0,12.0,90,0.00,CLR,CLR,0.00,0.0,WeatherDisplay:10.37,2013-10-16 12:03:00,
2013-10-16 07:08:00,47.7,44.9,29.66,WSW,245,6.0,10.0,90,0.00,CLR,CLR,0.00,0.0,WeatherDisplay:10.37,2013-10-16 12:08:00,
2013-10-16 07:13:00,47.8,45.0,29.67,WSW,245,6.0,9.0,90,0.00,CLR,CLR,0.00,0.0,WeatherDisplay:10.37,2013-10-16 12:13:00,
2013-10-16 07:18:00,47.9,45.1,29.67,WSW,249,7.0,12.0,90,0.00,CLR,CLR,0.00,0.0,WeatherDisplay:10.37,2013-10-16 12:18:00,
2013-10-16 07:23:00,47.9,45.1,29.67,WSW,248,6.0,12.0,90,0.00,CLR,CLR,0.00,0.0,WeatherDisplay:10.37,2013-10-16 12:23:00,
2013-10-16 07:28:00,48.0,45.2,29.67,WSW,246,7.0,10.0,90,0.00,CLR,CLR,0.00,0.0,WeatherDisplay:10.37,2013-10-16 12:28:00,
2013-10-16 07:33:00,48.1,45.3,29.67,WSW,244,6.0,9.0,90,0.00,CLR,CLR,0.00,0.0,WeatherDisplay:10.37,2013-10-16 12:33:00,
2013-10-16 07:38:00,48.2,45.4,29.67,WSW,242,6.0,10.0,90,0.00,CLR,CLR,0.00,0.0,WeatherDisplay:10.37,2013-10-16 12:38:00,
2013-10-16 07:43:00,48.2,45.1,29.67,WSW,242,7.0,9.0,89,0.00,CLR,CLR,0.00,0.0,WeatherDisplay:10.37,2013-10-16 12:43:00,
2013-10-16 07:48:00,48.3,45.2,29.67,WSW,243,7.0,9.0,89,0.00,CLR,CLR,0.00,0.0,WeatherDisplay:10.37,2013-10-16 12:48:00,
2013-10-16 07:53:00,48.4,45.3,29.68,WSW,248,7.0,12.0,89,0.00,CLR,CLR,0.00,0.0,WeatherDisplay:10.37,2013-10-16 12:53:00,
2013-10-16 07:58:00,48.4,45.3,29.68,WSW,250,7.0,10.0,89,0.00,CLR,CLR,0.00,0.0,WeatherDisplay:10.37,2013-10-16 12:58:00,
2013-10-16 08:03:00,48.5,45.5,29.68,WSW,250,7.0,10.0,89,0.00,CLR,CLR,0.00,0.0,WeatherDisplay:10.37,2013-10-16 13:03:00,
2013-10-16 08:08:00,48.7,45.6,29.68,WSW,249,6.0,10.0,89,0.00,CLR,CLR,0.00,0.0,WeatherDisplay:10.37,2013-10-16 13:08:00,
2013-10-16 08:13:00,48.7,45.6,29.68,WSW,250,6.0,10.0,89,0.00,CLR,CLR,0.00,0.0,WeatherDisplay:10.37,2013-10-16 13:13:00,
2013-10-16 08:23:00,48.9,45.5,29.68,WSW,254,7.0,12.0,88,0.00,CLR,CLR,0.00,0.0,WeatherDisplay:10.37,2013-10-16 13:23:00,
2013-10-16 08:28:00,49.0,45.6,29.68,WSW,254,7.0,10.0,88,0.00,CLR,CLR,0.00,0.0,WeatherDisplay:10.37,2013-10-16 13:28:00,
2013-10-16 08:33:00,49.2,45.2,29.68,WSW,254,6.0,13.0,86,0.00,CLR,CLR,0.00,0.0,WeatherDisplay:10.37,2013-10-16 13:33:00,
2013-10-16 08:38:00,49.2,45.5,29.68,WSW,254,5.0,8.0,87,0.00,CLR,CLR,0.00,0.0,WeatherDisplay:10.37,2013-10-16 13:38:00,
2013-10-16 08:43:00,49.2,45.8,29.68,WSW,254,7.0,9.0,88,0.00,CLR,CLR,0.00,0.0,WeatherDisplay:10.37,2013-10-16 13:43:00,
2013-10-16 08:48:00,49.3,45.9,29.68,WSW,250,6.0,9.0,88,0.00,CLR,CLR,0.00,0.0,WeatherDisplay:10.37,2013-10-16 13:48:00,
2013-10-16 08:53:00,49.4,46.0,29.68,WSW,249,7.0,12.0,88,0.00,CLR,CLR,0.00,0.0,WeatherDisplay:10.37,2013-10-16 13:53:00,
2013-10-16 08:58:00,49.7,46.3,29.68,WSW,249,8.0,12.0,88,0.00,CLR,CLR,0.00,0.0,WeatherDisplay:10.37,2013-10-16 13:58:00,
2013-10-16 09:03:00,49.9,46.5,29.68,WSW,249,8.0,12.0,88,0.00,CLR,CLR,0.00,0.0,WeatherDisplay:10.37,2013-10-16 14:03:00,
2013-10-16 09:08:00,50.2,46.5,29.68,WSW,248,7.0,12.0,87,0.00,CLR,CLR,0.00,0.0,WeatherDisplay:10.37,2013-10-16 14:08:00,
2013-10-16 09:13:00,50.4,46.7,29.68,WSW,252,7.0,13.0,87,0.00,CLR,CLR,0.00,0.0,WeatherDisplay:10.37,2013-10-16 14:13:00,
2013-10-16 09:18:00,50.6,46.6,29.68,WSW,254,8.0,12.0,86,0.00,CLR,CLR,0.00,0.0,WeatherDisplay:10.37,2013-10-16 14:18:00,
2013-10-16 09:23:00,50.7,46.4,29.68,WSW,251,8.0,14.0,85,0.00,CLR,CLR,0.00,0.0,WeatherDisplay:10.37,2013-10-16 14:23:00,
2013-10-16 09:28:00,50.9,46.8,29.69,WSW,249,8.0,14.0,86,0.00,CLR,CLR,0.00,0.0,WeatherDisplay:10.37,2013-10-16 14:28:00,
2013-10-16 09:33:00,51.3,47.2,29.69,WSW,249,10.0,20.0,86,0.00,CLR,CLR,0.00,0.0,WeatherDisplay:10.37,2013-10-16 14:33:00,
2013-10-16 09:38:00,51.3,46.3,29.69,WSW,253,9.0,16.0,83,0.00,CLR,CLR,0.00,0.0,WeatherDisplay:10.37,2013-10-16 14:38:00,
2013-10-16 09:43:00,51.4,46.4,29.68,WSW,253,10.0,15.0,83,0.00,CLR,CLR,0.00,0.0,WeatherDisplay:10.37,2013-10-16 14:43:00,
2013-10-16 09:48:00,51.5,46.5,29.69,WSW,253,8.0,14.0,83,0.00,CLR,CLR,0.00,0.0,WeatherDisplay:10.37,2013-10-16 14:48:00,
2013-10-16 09:53:00,51.5,46.5,29.69,WSW,256,9.0,15.0,83,0.00,CLR,CLR,0.00,0.0,WeatherDisplay:10.37,2013-10-16 14:53:00,
2013-10-16 09:58:00,51.4,46.4,29.69,WSW,253,9.0,17.0,83,0.00,CLR,CLR,0.00,0.0,WeatherDisplay:10.37,2013-10-16 14:58:00,
2013-10-16 10:03:00,51.2,46.2,29.69,WSW,252,12.0,20.0,83,0.00,CLR,CLR,0.00,0.0,WeatherDisplay:10.37,2013-10-16 15:03:00,
2013-10-16 10:08:00,51.2,46.5,29.70,WSW,257,6.0,15.0,84,0.00,CLR,CLR,0.00,0.0,WeatherDisplay:10.37,2013-10-16 15:08:00,
2013-10-16 10:13:00,51.2,46.2,29.70,West,262,9.0,17.0,83,0.00,CLR,CLR,0.00,0.0,WeatherDisplay:10.37,2013-10-16 15:13:00,
2013-10-16 10:18:00,51.2,46.2,29.70,WSW,255,12.0,17.0,83,0.00,CLR,CLR,0.00,0.0,WeatherDisplay:10.37,2013-10-16 15:18:00,
2013-10-16 10:23:00,51.3,46.0,29.70,WSW,253,9.0,13.0,82,0.00,CLR,CLR,0.00,0.0,WeatherDisplay:10.37,2013-10-16 15:23:00,
2013-10-16 10:28:00,51.3,46.0,29.70,WSW,252,10.0,18.0,82,0.00,CLR,CLR,0.00,0.0,WeatherDisplay:10.37,2013-10-16 15:28:00,
2013-10-16 10:33:00,51.5,46.2,29.70,WSW,254,13.0,20.0,82,0.00,CLR,CLR,0.00,0.0,WeatherDisplay:10.37,2013-10-16 15:33:00,
2013-10-16 10:38:00,51.5,46.2,29.70,WSW,254,7.0,16.0,82,0.00,CLR,CLR,0.00,0.0,WeatherDisplay:10.37,2013-10-16 15:38:00,
2013-10-16 10:43:00,51.7,46.1,29.70,WSW,257,8.0,15.0,81,0.00,CLR,CLR,0.00,0.0,WeatherDisplay:10.37,2013-10-16 15:43:00,
2013-10-16 10:48:00,51.9,46.5,29.70,WSW,254,10.0,15.0,82,0.00,CLR,CLR,0.00,0.0,WeatherDisplay:10.37,2013-10-16 15:48:00,
2013-10-16 10:53:00,51.9,46.6,29.70,WSW,250,10.0,15.0,82,0.00,CLR,CLR,0.00,0.0,WeatherDisplay:10.37,2013-10-16 15:53:00,
2013-10-16 10:58:00,52.0,46.7,29.70,WSW,249,10.0,18.0,82,0.00,CLR,CLR,0.00,0.0,WeatherDisplay:10.37,2013-10-16 15:58:00,
2013-10-16 11:03:00,52.1,46.1,29.70,WSW,255,10.0,15.0,80,0.00,CLR,CLR,0.00,0.0,WeatherDisplay:10.37,2013-10-16 16:03:00,
2013-10-16 11:08:00,52.3,46.6,29.70,West,261,8.0,14.0,81,0.00,CLR,CLR,0.00,0.0,WeatherDisplay:10.37,2013-10-16 16:08:00,
2013-10-16 11:13:00,52.4,46.4,29.70,West,259,10.0,16.0,80,0.00,CLR,CLR,0.00,0.0,WeatherDisplay:10.37,2013-10-16 16:13:00,
2013-10-16 11:18:00,52.4,46.4,29.70,WSW,253,8.0,15.0,80,0.00,CLR,CLR,0.00,0.0,WeatherDisplay:10.37,2013-10-16 16:18:00,
2013-10-16 11:23:00,52.4,46.4,29.70,WSW,254,8.0,13.0,80,0.00,CLR,CLR,0.00,0.0,WeatherDisplay:10.37,2013-10-16 16:23:00,
2013-10-16 11:28:00,52.5,46.5,29.70,West,262,8.0,12.0,80,0.00,CLR,CLR,0.00,0.0,WeatherDisplay:10.37,2013-10-16 16:28:00,
2013-10-16 11:33:00,52.4,46.4,29.71,WSW,257,10.0,18.0,80,0.00,CLR,CLR,0.00,0.0,WeatherDisplay:10.37,2013-10-16 16:33:00,
2013-10-16 11:38:00,52.4,46.4,29.71,WSW,258,8.0,15.0,80,0.00,CLR,CLR,0.00,0.0,WeatherDisplay:10.37,2013-10-16 16:38:00,
2013-10-16 11:43:00,52.3,46.3,29.71,WSW,254,12.0,16.0,80,0.00,CLR,CLR,0.00,0.0,WeatherDisplay:10.37,2013-10-16 16:43:00,
2013-10-16 11:48:00,52.4,46.4,29.70,WSW,255,8.0,14.0,80,0.00,CLR,CLR,0.00,0.0,WeatherDisplay:10.37,2013-10-16 16:48:00,
2013-10-16 11:53:00,52.6,46.6,29.70,West,259,8.0,17.0,80,0.00,CLR,CLR,0.00,0.0,WeatherDisplay:10.37,2013-10-16 16:53:00,
2013-10-16 11:58:00,52.7,46.7,29.70,WSW,249,12.0,16.0,80,0.00,CLR,CLR,0.00,0.0,WeatherDisplay:10.37,2013-10-16 16:58:00,
2013-10-16 12:03:00,52.9,46.9,29.70,WSW,248,10.0,16.0,80,0.00,CLR,CLR,0.00,0.0,WeatherDisplay:10.37,2013-10-16 17:03:00,
2013-10-16 12:08:00,52.9,46.6,29.70,West,259,9.0,17.0,79,0.00,CLR,CLR,0.00,0.0,WeatherDisplay:10.37,2013-10-16 17:08:00,
2013-10-16 12:13:00,52.9,46.6,29.70,West,262,10.0,20.0,79,0.00,CLR,CLR,0.00,0.0,WeatherDisplay:10.37,2013-10-16 17:13:00,
2013-10-16 12:18:00,53.0,46.7,29.70,WSW,250,7.0,15.0,79,0.00,CLR,CLR,0.00,0.0,WeatherDisplay:10.37,2013-10-16 17:18:00,
2013-10-16 12:23:00,53.2,46.9,29.70,WSW,249,8.0,14.0,79,0.00,CLR,CLR,0.00,0.0,WeatherDisplay:10.37,2013-10-16 17:23:00,
2013-10-16 12:28:00,53.1,46.8,29.70,WSW,250,9.0,20.0,79,0.00,CLR,CLR,0.00,0.0,WeatherDisplay:10.37,2013-10-16 17:28:00,
2013-10-16 12:33:00,53.0,46.7,29.70,WSW,253,7.0,15.0,79,0.00,CLR,CLR,0.00,0.0,WeatherDisplay:10.37,2013-10-16 17:33:00,
2013-10-16 12:38:00,53.1,46.8,29.70,WSW,253,10.0,15.0,79,0.00,CLR,CLR,0.00,0.0,WeatherDisplay:10.37,2013-10-16 17:38:00,
2013-10-16 12:43:00,53.1,46.4,29.70,WSW,255,8.0,15.0,78,0.00,CLR,CLR,0.00,0.0,WeatherDisplay:10.37,2013-10-16 17:43:00,
2013-10-16 12:48:00,53.2,46.9,29.70,WSW,248,13.0,16.0,79,0.00,CLR,CLR,0.00,0.0,WeatherDisplay:10.37,2013-10-16 17:48:00,
2013-10-16 12:53:00,53.2,47.2,29.70,WSW,249,8.0,14.0,80,0.00,CLR,CLR,0.00,0.0,WeatherDisplay:10.37,2013-10-16 17:53:00,
2013-10-16 13:03:00,53.1,46.7,29.70,WSW,255,9.0,15.0,79,0.00,CLR,CLR,0.00,0.0,WeatherDisplay:10.37,2013-10-16 18:03:00,
2013-10-16 13:08:00,53.0,47.0,29.69,WSW,254,9.0,16.0,80,0.00,CLR,CLR,0.00,0.0,WeatherDisplay:10.37,2013-10-16 18:08:00,
2013-10-16 13:13:00,52.9,46.5,29.70,WSW,252,9.0,17.0,79,0.00,CLR,CLR,0.00,0.0,WeatherDisplay:10.37,2013-10-16 18:13:00,
2013-10-16 13:18:00,52.7,46.4,29.69,WSW,252,10.0,15.0,79,0.00,CLR,CLR,0.00,0.0,WeatherDisplay:10.37,2013-10-16 18:18:00,
2013-10-16 13:23:00,52.6,46.6,29.69,WSW,254,10.0,15.0,80,0.00,CLR,CLR,0.00,0.0,WeatherDisplay:10.37,2013-10-16 18:23:00,
2013-10-16 13:28:00,52.7,46.7,29.70,WSW,254,7.0,13.0,80,0.00,CLR,CLR,0.00,0.0,WeatherDisplay:10.37,2013-10-16 18:28:00,
2013-10-16 13:33:00,52.7,46.4,29.70,WSW,255,8.0,12.0,79,0.00,CLR,CLR,0.00,0.0,WeatherDisplay:10.37,2013-10-16 18:33:00,
2013-10-16 13:38:00,52.8,47.1,29.69,WSW,256,6.0,12.0,81,0.00,CLR,CLR,0.00,0.0,WeatherDisplay:10.37,2013-10-16 18:38:00,
2013-10-16 13:43:00,52.9,46.9,29.69,WSW,258,8.0,12.0,80,0.00,CLR,CLR,0.00,0.0,WeatherDisplay:10.37,2013-10-16 18:43:00,
2013-10-16 13:48:00,52.9,47.2,29.69,WSW,256,8.0,12.0,81,0.00,CLR,CLR,0.00,0.0,WeatherDisplay:10.37,2013-10-16 18:48:00,
2013-10-16 13:53:00,53.0,47.0,29.69,WSW,254,8.0,13.0,80,0.00,CLR,CLR,0.00,0.0,WeatherDisplay:10.37,2013-10-16 18:53:00,
2013-10-16 13:58:00,53.1,47.1,29.69,West,263,7.0,13.0,80,0.00,CLR,CLR,0.00,0.0,WeatherDisplay:10.37,2013-10-16 18:58:00,
2013-10-16 14:03:00,53.3,47.3,29.69,West,260,7.0,9.0,80,0.00,CLR,CLR,0.00,0.0,WeatherDisplay:10.37,2013-10-16 19:03:00,
2013-10-16 14:08:00,53.8,48.1,29.69,WSW,257,8.0,12.0,81,0.00,CLR,CLR,0.00,0.0,WeatherDisplay:10.37,2013-10-16 19:08:00,
2013-10-16 14:13:00,54.0,47.7,29.69,WSW,255,8.0,12.0,79,0.00,CLR,CLR,0.00,0.0,WeatherDisplay:10.37,2013-10-16 19:13:00,
2013-10-16 14:18:00,54.1,47.3,29.69,WSW,252,10.0,14.0,78,0.00,CLR,CLR,0.00,0.0,WeatherDisplay:10.37,2013-10-16 19:18:00,
2013-10-16 14:23:00,54.1,47.7,29.69,WSW,252,7.0,13.0,79,0.00,CLR,CLR,0.00,0.0,WeatherDisplay:10.37,2013-10-16 19:23:00,
2013-10-16 14:28:00,54.1,47.4,29.69,West,260,9.0,15.0,78,0.00,CLR,CLR,0.00,0.0,WeatherDisplay:10.37,2013-10-16 19:28:00,
2013-10-16 14:33:00,54.2,47.5,29.69,WSW,257,9.0,15.0,78,0.00,CLR,CLR,0.00,0.0,WeatherDisplay:10.37,2013-10-16 19:33:00,
2013-10-16 14:38:00,54.2,47.8,29.69,WSW,251,12.0,18.0,79,0.00,CLR,CLR,0.00,0.0,WeatherDisplay:10.37,2013-10-16 19:38:00,
2013-10-16 14:43:00,54.1,47.7,29.69,WSW,251,6.0,15.0,79,0.00,CLR,CLR,0.00,0.0,WeatherDisplay:10.37,2013-10-16 19:43:00,
2013-10-16 14:48:00,54.1,47.4,29.69,WSW,253,7.0,12.0,78,0.00,CLR,CLR,0.00,0.0,WeatherDisplay:10.37,2013-10-16 19:48:00,
2013-10-16 14:53:00,54.1,47.4,29.69,WSW,255,7.0,12.0,78,0.00,CLR,CLR,0.00,0.0,WeatherDisplay:10.37,2013-10-16 19:53:00,
2013-10-16 15:03:00,53.9,47.6,29.68,WSW,253,7.0,12.0,79,0.00,CLR,CLR,0.00,0.0,WeatherDisplay:10.37,2013-10-16 20:03:00,
2013-10-16 15:08:00,54.1,47.7,29.68,WSW,257,8.0,14.0,79,0.00,CLR,CLR,0.00,0.0,WeatherDisplay:10.37,2013-10-16 20:08:00,
2013-10-16 15:18:00,54.1,47.4,29.68,WSW,253,9.0,14.0,78,0.00,CLR,CLR,0.00,0.0,WeatherDisplay:10.37,2013-10-16 20:18:00,
2013-10-16 15:23:00,54.0,47.3,29.68,WSW,256,9.0,14.0,78,0.00,CLR,CLR,0.00,0.0,WeatherDisplay:10.37,2013-10-16 20:23:00,
2013-10-16 15:28:00,54.0,47.3,29.68,West,263,9.0,13.0,78,0.00,CLR,CLR,0.00,0.0,WeatherDisplay:10.37,2013-10-16 20:28:00,
2013-10-16 15:33:00,54.2,47.5,29.68,WSW,254,10.0,16.0,78,0.00,CLR,CLR,0.00,0.0,WeatherDisplay:10.37,2013-10-16 20:33:00,
2013-10-16 15:38:00,54.3,47.6,29.68,WSW,256,7.0,14.0,78,0.00,CLR,CLR,0.00,0.0,WeatherDisplay:10.37,2013-10-16 20:38:00,
2013-10-16 15:48:00,54.1,47.4,29.68,WSW,255,9.0,13.0,78,0.00,CLR,CLR,0.00,0.0,WeatherDisplay:10.37,2013-10-16 20:48:00,
2013-10-16 15:53:00,54.1,47.4,29.68,WSW,255,5.0,10.0,78,0.00,CLR,CLR,0.00,0.0,WeatherDisplay:10.37,2013-10-16 20:53:00,
2013-10-16 15:58:00,54.4,47.7,29.68,West,266,6.0,10.0,78,0.00,CLR,CLR,0.00,0.0,WeatherDisplay:10.37,2013-10-16 20:58:00,
2013-10-16 16:03:00,54.5,47.4,29.68,WSW,258,6.0,12.0,77,0.00,CLR,CLR,0.00,0.0,WeatherDisplay:10.37,2013-10-16 21:03:00,
2013-10-16 16:08:00,54.5,47.4,29.68,West,260,6.0,12.0,77,0.00,CLR,CLR,0.00,0.0,WeatherDisplay:10.37,2013-10-16 21:08:00,
2013-10-16 16:13:00,54.5,47.1,29.68,West,262,7.0,14.0,76,0.00,CLR,CLR,0.00,0.0,WeatherDisplay:10.37,2013-10-16 21:13:00,
2013-10-16 16:18:00,54.5,47.1,29.68,WSW,254,6.0,10.0,76,0.00,CLR,CLR,0.00,0.0,WeatherDisplay:10.37,2013-10-16 21:18:00,
2013-10-16 16:23:00,54.4,47.0,29.68,West,259,6.0,10.0,76,0.00,CLR,CLR,0.00,0.0,WeatherDisplay:10.37,2013-10-16 21:23:00,
2013-10-16 16:28:00,54.4,47.0,29.69,WSW,251,8.0,12.0,76,0.00,CLR,CLR,0.00,0.0,WeatherDisplay:10.37,2013-10-16 21:28:00,
2013-10-16 16:38:00,54.1,47.0,29.69,West,259,6.0,9.0,77,0.00,CLR,CLR,0.00,0.0,WeatherDisplay:10.37,2013-10-16 21:38:00,
2013-10-16 16:43:00,54.1,47.0,29.69,West,263,5.0,12.0,77,0.00,CLR,CLR,0.00,0.0,WeatherDisplay:10.37,2013-10-16 21:43:00,
2013-10-16 16:48:00,54.0,47.0,29.69,WSW,258,7.0,10.0,77,0.00,CLR,CLR,0.00,0.0,WeatherDisplay:10.37,2013-10-16 21:48:00,
2013-10-16 16:53:00,53.9,46.9,29.69,WSW,253,5.0,10.0,77,0.00,CLR,CLR,0.00,0.0,WeatherDisplay:10.37,2013-10-16 21:53:00,
2013-10-16 16:58:00,53.9,46.9,29.69,WSW,251,5.0,10.0,77,0.00,CLR,CLR,0.00,0.0,WeatherDisplay:10.37,2013-10-16 21:58:00,
2013-10-16 17:03:00,53.8,46.8,29.69,WSW,253,6.0,10.0,77,0.00,CLR,CLR,0.00,0.0,WeatherDisplay:10.37,2013-10-16 22:03:00,
2013-10-16 17:08:00,53.7,47.0,29.69,WSW,254,5.0,8.0,78,0.00,CLR,CLR,0.00,0.0,WeatherDisplay:10.37,2013-10-16 22:08:00,
2013-10-16 17:13:00,53.6,46.6,29.69,WSW,257,5.0,8.0,77,0.00,CLR,CLR,0.00,0.0,WeatherDisplay:10.37,2013-10-16 22:13:00,
2013-10-16 17:18:00,53.5,46.8,29.69,WSW,256,5.0,7.0,78,0.00,CLR,CLR,0.00,0.0,WeatherDisplay:10.37,2013-10-16 22:18:00,
2013-10-16 17:23:00,53.5,46.8,29.69,WSW,257,3.0,8.0,78,0.00,CLR,CLR,0.00,0.0,WeatherDisplay:10.37,2013-10-16 22:23:00,
2013-10-16 17:33:00,53.3,46.6,29.70,WSW,252,5.0,9.0,78,0.00,CLR,CLR,0.00,0.0,WeatherDisplay:10.37,2013-10-16 22:33:00,
2013-10-16 17:38:00,53.2,46.5,29.69,West,260,5.0,12.0,78,0.00,CLR,CLR,0.00,0.0,WeatherDisplay:10.37,2013-10-16 22:38:00,
2013-10-16 17:43:00,53.1,46.4,29.70,West,263,5.0,9.0,78,0.00,CLR,CLR,0.00,0.0,WeatherDisplay:10.37,2013-10-16 22:43:00,
2013-10-16 17:48:00,53.1,46.7,29.70,West,260,5.0,9.0,79,0.00,CLR,CLR,0.00,0.0,WeatherDisplay:10.37,2013-10-16 22:48:00,
2013-10-16 17:53:00,53.0,46.7,29.70,WSW,257,5.0,7.0,79,0.00,CLR,CLR,0.00,0.0,WeatherDisplay:10.37,2013-10-16 22:53:00,
2013-10-16 17:58:00,52.9,46.6,29.70,WSW,254,3.0,6.0,79,0.00,CLR,CLR,0.00,0.0,WeatherDisplay:10.37,2013-10-16 22:58:00,
2013-10-16 18:03:00,52.8,46.5,29.70,WSW,256,5.0,7.0,79,0.00,CLR,CLR,0.00,0.0,WeatherDisplay:10.37,2013-10-16 23:03:00,
2013-10-16 18:08:00,52.7,46.7,29.70,WSW,253,3.0,7.0,80,0.00,CLR,CLR,0.00,0.0,WeatherDisplay:10.37,2013-10-16 23:08:00,
2013-10-16 18:13:00,52.7,46.7,29.70,WSW,254,2.0,6.0,80,0.00,CLR,CLR,0.00,0.0,WeatherDisplay:10.37,2013-10-16 23:13:00,
2013-10-16 18:18:00,52.6,46.6,29.70,West,265,3.0,8.0,80,0.00,CLR,CLR,0.00,0.0,WeatherDisplay:10.37,2013-10-16 23:18:00,
2013-10-16 18:23:00,52.6,46.6,29.71,West,267,5.0,9.0,80,0.00,CLR,CLR,0.00,0.0,WeatherDisplay:10.37,2013-10-16 23:23:00,
2013-10-16 18:28:00,52.5,46.5,29.71,WSW,258,3.0,10.0,80,0.00,CLR,CLR,0.00,0.0,WeatherDisplay:10.37,2013-10-16 23:28:00,
2013-10-16 18:33:00,52.4,46.5,29.71,West,262,5.0,10.0,80,0.00,CLR,CLR,0.00,0.0,WeatherDisplay:10.37,2013-10-16 23:33:00,
2013-10-16 18:38:00,52.4,46.4,29.71,West,266,3.0,8.0,80,0.00,CLR,CLR,0.00,0.0,WeatherDisplay:10.37,2013-10-16 23:38:00,
2013-10-16 18:43:00,52.3,46.3,29.71,West,261,3.0,7.0,80,0.00,CLR,CLR,0.00,0.0,WeatherDisplay:10.37,2013-10-16 23:43:00,
2013-10-16 18:48:00,52.2,46.3,29.71,WSW,255,5.0,8.0,80,0.00,CLR,CLR,0.00,0.0,WeatherDisplay:10.37,2013-10-16 23:48:00,
2013-10-16 18:53:00,52.2,46.2,29.71,West,260,6.0,8.0,80,0.00,CLR,CLR,0.00,0.0,WeatherDisplay:10.37,2013-10-16 23:53:00,
2013-10-16 18:58:00,52.1,46.4,29.71,West,268,3.0,8.0,81,0.00,CLR,CLR,0.00,0.0,WeatherDisplay:10.37,2013-10-16 23:58:00,
2013-10-16 19:03:00,52.1,46.4,29.72,West,266,5.0,6.0,81,0.00,CLR,CLR,0.00,0.0,WeatherDisplay:10.37,2013-10-17 00:03:00,
2013-10-16 19:08:00,52.0,46.3,29.72,West,263,5.0,7.0,81,0.00,CLR,CLR,0.00,0.0,WeatherDisplay:10.37,2013-10-17 00:08:00,
2013-10-16 19:13:00,52.0,46.6,29.72,WSW,253,2.0,6.0,82,0.00,CLR,CLR,0.00,0.0,WeatherDisplay:10.37,2013-10-17 00:13:00,
2013-10-16 19:18:00,51.9,46.6,29.72,WSW,249,2.0,5.0,82,0.00,CLR,CLR,0.00,0.0,WeatherDisplay:10.37,2013-10-17 00:18:00,
2013-10-16 19:23:00,51.8,46.8,29.72,WSW,251,3.0,5.0,83,0.00,CLR,CLR,0.00,0.0,WeatherDisplay:10.37,2013-10-17 00:23:00,
2013-10-16 19:28:00,51.7,46.7,29.72,West,262,5.0,6.0,83,0.00,CLR,CLR,0.00,0.0,WeatherDisplay:10.37,2013-10-17 00:28:00,
2013-10-16 19:33:00,51.7,46.7,29.72,West,266,3.0,5.0,83,0.00,CLR,CLR,0.00,0.0,WeatherDisplay:10.37,2013-10-17 00:33:00,
2013-10-16 19:38:00,51.7,46.7,29.72,West,261,3.0,6.0,83,0.00,CLR,CLR,0.00,0.0,WeatherDisplay:10.37,2013-10-17 00:38:00,
2013-10-16 19:48:00,51.6,46.6,29.72,WSW,254,3.0,6.0,83,0.00,CLR,CLR,0.00,0.0,WeatherDisplay:10.37,2013-10-17 00:48:00,
2013-10-16 19:53:00,51.6,46.3,29.72,West,261,5.0,8.0,82,0.00,CLR,CLR,0.00,0.0,WeatherDisplay:10.37,2013-10-17 00:53:00,
2013-10-16 19:58:00,51.6,46.6,29.72,WSW,256,5.0,7.0,83,0.00,CLR,CLR,0.00,0.0,WeatherDisplay:10.37,2013-10-17 00:58:00,
2013-10-16 20:08:00,51.5,46.5,29.72,West,259,3.0,6.0,83,0.00,CLR,CLR,0.00,0.0,WeatherDisplay:10.37,2013-10-17 01:08:00,
2013-10-16 20:13:00,51.4,46.4,29.73,WSW,256,3.0,6.0,83,0.00,CLR,CLR,0.00,0.0,WeatherDisplay:10.37,2013-10-17 01:13:00,
2013-10-16 20:18:00,51.4,46.7,29.73,WSW,257,2.0,5.0,84,0.00,CLR,CLR,0.00,0.0,WeatherDisplay:10.37,2013-10-17 01:18:00,
2013-10-16 20:23:00,51.3,46.7,29.73,WSW,257,3.0,5.0,84,0.00,CLR,CLR,0.00,0.0,WeatherDisplay:10.37,2013-10-17 01:23:00,
2013-10-16 20:28:00,51.3,46.6,29.73,WSW,255,2.0,6.0,84,0.00,CLR,CLR,0.00,0.0,WeatherDisplay:10.37,2013-10-17 01:28:00,
2013-10-16 20:33:00,51.3,46.6,29.73,West,261,2.0,5.0,84,0.00,CLR,CLR,0.00,0.0,WeatherDisplay:10.37,2013-10-17 01:33:00,
2013-10-16 20:38:00,51.2,46.8,29.73,West,276,2.0,5.0,85,0.00,CLR,CLR,0.00,0.0,WeatherDisplay:10.37,2013-10-17 01:38:00,
2013-10-16 20:43:00,51.2,46.5,29.73,West,263,2.0,4.0,84,0.00,CLR,CLR,0.00,0.0,WeatherDisplay:10.37,2013-10-17 01:43:00,
2013-10-16 20:53:00,51.3,46.9,29.73,WSW,246,3.0,7.0,85,0.00,CLR,CLR,0.00,0.0,WeatherDisplay:10.37,2013-10-17 01:53:00,
2013-10-16 21:03:00,51.2,46.8,29.74,WSW,254,3.0,6.0,85,0.00,CLR,CLR,0.00,0.0,WeatherDisplay:10.37,2013-10-17 02:03:00,
2013-10-16 21:08:00,51.1,46.7,29.74,WSW,254,3.0,5.0,85,0.00,CLR,CLR,0.00,0.0,WeatherDisplay:10.37,2013-10-17 02:08:00,
2013-10-16 21:18:00,51.1,46.7,29.74,WSW,257,5.0,8.0,85,0.00,CLR,CLR,0.00,0.0,WeatherDisplay:10.37,2013-10-17 02:18:00,
2013-10-16 21:23:00,51.1,46.8,29.74,WSW,247,5.0,8.0,85,0.00,CLR,CLR,0.00,0.0,WeatherDisplay:10.37,2013-10-17 02:23:00,
2013-10-16 21:28:00,51.1,46.7,29.74,WSW,254,3.0,6.0,85,0.00,CLR,CLR,0.00,0.0,WeatherDisplay:10.37,2013-10-17 02:28:00,
2013-10-16 21:33:00,51.1,46.7,29.74,WSW,258,3.0,7.0,85,0.00,CLR,CLR,0.00,0.0,WeatherDisplay:10.37,2013-10-17 02:33:00,
2013-10-16 21:43:00,51.0,46.6,29.74,West,260,2.0,6.0,85,0.00,CLR,CLR,0.00,0.0,WeatherDisplay:10.37,2013-10-17 02:43:00,
2013-10-16 21:48:00,51.0,46.6,29.74,West,264,2.0,5.0,85,0.00,CLR,CLR,0.00,0.0,WeatherDisplay:10.37,2013-10-17 02:48:00,
2013-10-16 21:53:00,51.0,46.6,29.74,WSW,258,3.0,6.0,85,0.00,CLR,CLR,0.00,0.0,WeatherDisplay:10.37,2013-10-17 02:53:00,
2013-10-16 21:58:00,51.0,47.0,29.74,WSW,247,3.0,5.0,86,0.00,CLR,CLR,0.00,0.0,WeatherDisplay:10.37,2013-10-17 02:58:00,
2013-10-16 22:03:00,51.0,47.0,29.74,WSW,249,3.0,8.0,86,0.00,CLR,CLR,0.00,0.0,WeatherDisplay:10.37,2013-10-17 03:03:00,
2013-10-16 22:13:00,51.0,46.6,29.74,WSW,253,3.0,7.0,85,0.00,CLR,CLR,0.00,0.0,WeatherDisplay:10.37,2013-10-17 03:13:00,
2013-10-16 22:18:00,51.0,47.0,29.74,WSW,257,3.0,5.0,86,0.00,CLR,CLR,0.00,0.0,WeatherDisplay:10.37,2013-10-17 03:18:00,
2013-10-16 22:23:00,51.0,46.9,29.74,WSW,252,3.0,6.0,86,0.00,CLR,CLR,0.00,0.0,WeatherDisplay:10.37,2013-10-17 03:23:00,
2013-10-16 22:28:00,50.9,46.9,29.74,WSW,252,3.0,6.0,86,0.00,CLR,CLR,0.00,0.0,WeatherDisplay:10.37,2013-10-17 03:28:00,
2013-10-16 22:33:00,50.8,46.8,29.74,WSW,253,5.0,6.0,86,0.00,CLR,CLR,0.00,0.0,WeatherDisplay:10.37,2013-10-17 03:33:00,
2013-10-16 22:38:00,50.8,46.8,29.74,WSW,252,3.0,7.0,86,0.00,CLR,CLR,0.00,0.0,WeatherDisplay:10.37,2013-10-17 03:38:00,
2013-10-16 22:43:00,50.7,46.7,29.74,WSW,255,3.0,6.0,86,0.00,CLR,CLR,0.00,0.0,WeatherDisplay:10.37,2013-10-17 03:43:00,
2013-10-16 22:53:00,50.8,46.8,29.74,WSW,253,5.0,6.0,86,0.00,CLR,CLR,0.00,0.0,WeatherDisplay:10.37,2013-10-17 03:53:00,
2013-10-16 22:58:00,50.8,46.8,29.74,WSW,258,5.0,7.0,86,0.00,CLR,CLR,0.00,0.0,WeatherDisplay:10.37,2013-10-17 03:58:00,
2013-10-16 23:03:00,50.8,46.8,29.73,WSW,255,3.0,7.0,86,0.00,CLR,CLR,0.00,0.0,WeatherDisplay:10.37,2013-10-17 04:03:00,
2013-10-16 23:08:00,50.8,46.7,29.73,WSW,252,2.0,5.0,86,0.00,CLR,CLR,0.00,0.0,WeatherDisplay:10.37,2013-10-17 04:08:00,
2013-10-16 23:13:00,50.7,46.9,29.73,WSW,255,3.0,5.0,87,0.00,CLR,CLR,0.00,0.0,WeatherDisplay:10.37,2013-10-17 04:13:00,
2013-10-16 23:18:00,50.6,46.9,29.73,WSW,254,2.0,5.0,87,0.00,CLR,CLR,0.00,0.0,WeatherDisplay:10.37,2013-10-17 04:18:00,
2013-10-16 23:23:00,50.6,46.9,29.73,WSW,251,5.0,9.0,87,0.00,CLR,CLR,0.00,0.0,WeatherDisplay:10.37,2013-10-17 04:23:00,
2013-10-16 23:28:00,50.6,46.9,29.73,WSW,255,3.0,5.0,87,0.00,CLR,CLR,0.00,0.0,WeatherDisplay:10.37,2013-10-17 04:28:00,
2013-10-16 23:33:00,50.5,46.8,29.72,West,259,3.0,7.0,87,0.00,CLR,CLR,0.00,0.0,WeatherDisplay:10.37,2013-10-17 04:33:00,
2013-10-16 23:38:00,50.4,46.7,29.72,West,263,2.0,3.0,87,0.00,CLR,CLR,0.00,0.0,WeatherDisplay:10.37,2013-10-17 04:38:00,
2013-10-16 23:43:00,50.2,46.5,29.72,WSW,254,1.0,3.0,87,0.00,CLR,CLR,0.00,0.0,WeatherDisplay:10.37,2013-10-17 04:43:00,
2013-10-16 23:48:00,49.9,46.2,29.72,WSW,246,2.0,3.0,87,0.00,CLR,CLR,0.00,0.0,WeatherDisplay:10.37,2013-10-17 04:48:00,
2013-10-16 23:53:00,49.6,46.2,29.72,WSW,246,2.0,3.0,88,0.00,CLR,CLR,0.00,0.0,WeatherDisplay:10.37,2013-10-17 04:53:00,
2013-10-16 23:58:00,49.3,46.2,29.72,WSW,250,2.0,4.0,89,0.00,CLR,CLR,0.00,0.0,WeatherDisplay:10.37,2013-10-17 04:58:00,